Location: Knowlton
(51.2333°N, 1.2667°E)
Time: 23:07:35
(UTC+00:00)

ZACube-1 - Pass Details

Date: 02 December 2021
Orbit: 582 x 665 km, 97.6° (Epoch: 21 January)

Event Time Altitude Azimuth Distance (km) Brightness Sun altitude
Rises 16:31:22 0° 208° (SSW) 2,848 ? -6.4°
Reaches altitude 10° 16:34:08 10° 228° (SW) 1,966 ? -6.7°
Maximum altitude 16:37:03 18° 271° (W) 1,538 ? -7.1°
Drops below altitude 10° 16:40:02 10° 314° (NW) 2,012 ? -7.6°
Sets 16:42:55 0° 334° (NNW) 2,944 ? -8.0°
